RH
35 43 50 45 42 36 35 37 39 37 29 29 34 36 32 56 74 79 82 87 86 83 85 98 98 93 87 98 99 100 100 100 97 94 90 87 81 74 68 63 64 71 70 57
43 49 33 37 39 38 37 40 43 36 30 32 32 35 32 47 70 71 76 78 78 78 74 98 100 100 96 99 100 100 100 100 100 100 95 86 63 78 84 84 77 68 63 55
37 36 33 37 42 42 43 43 42 36 37 33 34 38 31 36 64 64 64 59 62 64 76 89 90 91 100 99 98 97 99 100 100 99 96 96 77 71 89 81 60 73 70 67
38 28 33 41 40 37 46 39 36 39 40 51 33 54 38 30 38 72 70 66 57 60 56 67 55 66 69 87 99 99 97 100 100 96 86 77 70 67 85 71 71 84 67 60
38 32 35 39 40 35 35 35 41 40 44 42 40 52 39 35 41 40 68 69 58 58 53 51 49 39 55 85 93 99 98 97 99 97 86 86 87 65 60 65 84 77 71 58
31 26 29 30 31 35 32 36 38 44 49 63 46 44 42 38 39 38 42 52 63 58 58 50 54 45 41 59 69 76 87 93 91 92 87 86 87 74 71 65 72 55 51 52
31 29 23 26 32 37 37 42 57 59 66 64 42 50 35 31 32 33 34 39 43 54 59 56 55 49 43 45 55 61 71 77 91 90 87 78 70 72 67 63 59 56 50 54
30 33 30 25 31 39 43 44 70 60 68 55 51 60 46 35 30 26 26 29 45 51 54 53 55 57 45 42 45 42 42 55 64 72 81 78 80 78 74 72 72 58 50 51
49 44 27 23 22 24 35 49 37 53 64 73 60 48 36 30 26 27 33 42 47 44 47 47 53 57 53 42 38 36 37 37 38 42 48 62 67 72 74 71 70 69 60 48
43 57 33 28 23 25 30 36 49 64 64 71 63 58 46 37 32 26 34 47 34 49 53 53 51 50 54 50 42 39 39 40 41 39 40 41 42 43 46 46 45 47 46 48
72 49 42 29 33 32 37 36 41 49 62 60 66 61 48 34 32 32 27 31 28 33 37 39 39 43 52 57 54 47 42 41 43 47 47 47 46 47 50 52 54 56 57 60
78 91 77 43 25 25 28 30 33 45 58 67 60 42 30 35 33 31 26 19 21 22 22 24 37 43 47 48 52 56 52 48 45 43 44 43 44 55 60 62 65 70 74 76
65 90 95 60 40 32 37 34 34 48 56 58 63 48 33 31 33 29 29 22 19 20 26 31 34 30 33 36 43 48 54 54 54 52 50 48 54 60 56 66 68 71 71 77
67 77 90 95 83 62 58 36 31 42 60 49 48 42 33 32 33 31 25 20 17 15 17 25 33 28 28 28 31 34 38 49 55 57 58 56 54 54 55 56 57 60 69 78
80 94 80 78 87 87 74 54 38 39 41 48 41 44 37 34 32 31 22 23 23 18 17 20 23 20 22 26 26 26 28 37 44 52 58 57 60 62 64 67 70 71 75 85
88 98 92 80 61 69 68 51 42 43 50 48 44 43 33 30 26 29 26 22 23 22 18 17 17 18 20 20 21 27 29 35 45 53 59 67 69 68 72 78 84 90 99 100
96 100 97 78 69 74 76 49 44 48 48 46 52 42 32 32 34 30 24 21 20 19 18 18 16 16 19 21 24 28 30 37 49 58 66 74 80 82 84 89 96 99 96 95
88 100 99 95 91 97 63 41 37 42 41 47 44 37 36 34 27 23 20 18 16 19 18 17 16 20 23 25 28 31 34 41 51 61 68 76 83 95 100 99 97 97 94 95
73 89 99 96 90 92 64 53 53 56 44 37 41 42 38 29 26 26 20 20 19 17 14 16 16 18 24 31 31 38 45 53 60 73 94 100 97 98 99 98 98 100 100 100
77 79 88 99 97 93 65 54 56 44 66 45 42 45 40 32 43 35 15 16 16 18 16 18 19 25 29 29 40 53 65 86 99 100 100 98 100 100 100 100 100 100 100 100
94 93 96 96 96 90 68 81 73 68 65 53 44 38 35 35 36 20 20 22 26 21 19 23 30 32 34 45 59 75 92 100 100 100 99 99 99 99 99 100 100 100 100 100
84 95 98 99 99 94 72 78 90 74 63 59 54 52 44 34 28 28 26 40 26 39 49 47 46 48 66 76 81 90 100 100 99 100 99 98 99 100 100 100 100 100 100 100
72 72 77 87 86 65 55 66 48 59 78 60 53 50 55 41 38 41 38 51 65 43 50 64 64 87 100 100 99 99 100 99 96 94 92 96 99 99 99 99 100 99 99 99
55 64 79 84 54 64 47 38 37 54 55 49 42 43 52 57 56 44 57 84 86 90 100 99 92 94 100 100 95 87 92 94 94 89 90 92 97 100 100 100 100 100 100 100
60 58 61 69 62 55 51 50 44 44 46 47 39 54 58 60 72 85 92 98 99 99 99 100 97 98 100 99 94 91 89 90 85 91 98 97 100 100 100 100 100 100 99 98
59 54 73 62 44 58 50 43 50 47 48 46 55 61 60 53 64 81 90 89 96 97 100 92 97 99 100 98 98 98 100 100 93 94 100 100 100 100 100 100 97 97 97 97
Wind_Speed
9 4 11 13 6 6 4 3 3 8 5 4 9 7 15 7 12 15 17 13 13 12 9 10 9 9 10 10 10 13 20 33 38 37 35 38 40 36 37 40 35 35 37 34
2 11 10 9 9 7 4 4 7 10 6 6 11 14 12 4 6 18 20 20 16 15 13 12 11 12 14 12 13 13 15 27 35 36 38 38 40 36 33 36 34 31 32 31
14 4 12 11 6 8 6 10 5 8 7 5 4 7 6 2 5 6 18 25 18 19 19 16 14 13 15 15 16 15 17 23 29 33 37 36 36 35 33 35 35 34 31 29
8 14 3 6 11 10 9 9 9 6 3 4 4 6 5 6 7 6 14 24 25 23 21 17 15 14 14 16 19 19 18 22 26 33 42 38 41 44 38 40 38 34 31 29
7 4 9 8 6 10 9 7 8 5 5 2 3 2 7 2 7 9 11 27 30 27 25 23 18 15 16 21 22 21 22 21 27 35 39 40 41 43 44 41 38 34 34 35
6 3 7 9 9 11 3 3 5 2 2 3 7 6 6 3 6 5 4 20 29 31 28 25 20 19 19 20 21 22 24 26 27 31 38 43 45 45 42 45 43 43 40 39
2 8 3 3 4 7 6 5 2 2 1 5 5 3 10 5 7 7 9 18 28 30 32 32 30 27 26 27 27 26 29 30 32 33 36 40 40 44 43 43 46 44 45 42
10 8 10 6 8 7 9 10 5 6 4 4 4 6 6 8 8 17 19 20 19 28 30 34 34 32 30 30 32 31 30 30 31 32 35 33 36 39 40 42 45 50 47 46
3 5 5 7 11 12 5 8 8 4 1 2 4 6 8 7 8 5 8 12 18 27 32 32 34 35 33 33 34 34 32 31 31 31 31 33 35 37 39 41 45 48 46 38
4 5 4 5 4 6 9 6 3 1 5 5 4 4 5 6 8 6 4 13 19 20 25 29 31 34 36 34 33 34 34 32 32 32 33 34 35 35 36 37 38 40 40 39
6 3 7 9 3 8 3 9 3 5 5 6 2 5 8 10 9 9 8 18 18 19 21 24 28 30 33 36 36 35 36 37 37 37 36 35 36 37 38 40 41 41 41 42
3 3 4 11 16 12 4 7 12 10 4 3 4 10 4 9 7 6 12 17 17 17 18 18 22 24 27 30 34 39 39 40 40 38 37 36 37 40 41 42 41 41 42 41
5 2 5 7 5 3 5 5 5 2 2 8 7 5 3 6 5 9 14 20 20 19 21 21 20 21 23 25 29 31 36 41 42 41 39 39 45 47 44 48 45 43 42 42
3 4 6 5 9 15 12 8 14 8 5 7 14 4 4 6 7 7 10 13 15 20 22 24 22 23 23 23 25 26 28 31 36 40 41 41 44 44 41 39 39 41 41 42
3 4 3 11 14 20 26 22 10 15 12 10 5 10 9 10 10 13 20 14 15 17 22 24 25 26 25 24 25 23 23 26 27 30 35 38 44 45 44 42 41 42 44 42
2 3 3 7 13 18 20 21 14 14 5 6 5 6 7 12 18 7 18 21 18 18 22 29 31 30 28 26 23 24 25 26 27 27 28 30 32 32 35 36 34 35 36 32
2 3 2 9 10 20 10 24 21 8 6 6 7 7 6 8 9 15 29 29 28 25 24 26 35 34 30 30 28 27 28 27 27 26 27 26 24 26 28 28 28 28 27 23
7 3 2 5 7 8 8 5 14 14 12 9 5 5 7 9 23 32 37 33 31 30 30 28 31 33 33 32 28 25 25 23 21 20 20 20 20 21 21 21 20 16 15 18
16 7 3 3 4 8 15 6 5 7 18 14 13 7 7 24 15 23 33 32 31 26 21 27 28 29 31 27 23 22 17 14 12 10 10 10 9 9 7 8 11 15 17 18
13 11 7 3 3 5 6 9 23 0 10 6 4 11 13 6 4 7 21 24 30 31 24 25 25 24 23 21 19 15 11 7 7 7 5 4 4 6 8 10 14 16 18 16
5 6 14 8 5 6 4 9 29 6 5 8 8 14 8 5 9 23 18 13 13 15 16 18 24 22 20 17 14 12 11 10 8 7 6 5 6 7 10 12 12 11 11 12
6 5 4 4 5 7 5 13 6 5 16 17 14 21 21 22 21 22 16 10 7 9 15 20 22 20 18 16 14 13 12 11 7 4 2 2 3 4 4 5 7 8 10 12
5 6 3 6 4 4 9 10 31 24 23 16 18 14 27 20 30 12 10 8 10 13 17 18 20 23 21 17 12 14 12 8 6 5 4 2 2 3 5 6 8 9 9 7
4 4 4 1 6 12 18 19 30 23 27 14 19 21 24 22 13 10 6 9 15 18 21 25 26 23 21 17 14 12 13 12 11 9 6 6 6 9 11 10 9 7 7 7
7 3 5 6 12 22 25 17 17 26 21 20 9 16 16 13 1 12 20 17 20 22 23 21 22 22 20 18 16 16 13 11 11 12 12 10 10 11 11 11 10 9 9 7
7 7 4 6 13 4 15 26 31 22 18 9 9 8 10 5 3 9 18 17 16 21 20 20 17 20 23 22 19 16 15 12 11 13 14 15 14 13 11 8 7 6 3 3
Wind_Direction
181 159 214 197 182 170 157 174 232 265 256 318 277 280 285 176 210 237 239 214 203 198 208 205 195 194 196 191 192 191 202 189 186 186 181 176 179 184 189 186 184 190 197 199
134 223 213 172 192 189 171 244 264 286 288 190 301 299 291 189 225 219 227 229 210 199 201 203 196 196 188 189 188 200 203 199 199 195 186 180 186 188 186 192 188 201 196 197
206 222 178 175 163 186 199 214 228 228 347 277 273 295 294 279 221 209 234 241 223 209 201 196 203 196 195 195 196 192 198 199 196 193 181 180 185 186 191 188 191 204 198 201
231 232 178 199 213 182 218 194 230 253 65 248 69 288 278 273 281 203 213 230 225 215 216 210 209 201 197 200 203 194 188 194 194 187 188 184 187 191 195 198 195 201 200 204
232 164 212 214 220 169 232 155 195 212 206 330 273 274 268 318 279 258 202 214 223 216 216 216 216 207 200 200 201 197 193 193 193 198 199 190 193 198 203 199 208 208 211 215
221 199 170 204 191 185 118 153 207 120 142 231 219 194 272 244 229 279 251 221 221 214 215 217 219 210 207 205 205 201 196 195 199 194 199 197 199 203 205 204 213 217 224 230
170 236 207 206 152 194 169 100 289 311 198 225 205 189 247 251 249 231 250 245 226 219 210 213 213 212 205 203 204 203 203 198 198 201 204 205 209 213 217 218 218 221 224 230
209 265 169 183 200 187 201 175 166 202 202 226 137 233 251 239 257 266 271 264 231 217 214 212 213 213 211 205 203 202 203 202 203 204 206 206 213 218 221 222 222 224 227 237
211 249 259 212 201 184 188 197 189 102 49 67 229 283 305 291 311 308 282 215 218 217 219 216 214 215 215 211 210 207 205 205 207 209 212 215 218 222 225 226 226 229 235 235
292 298 247 268 187 228 187 174 114 359 189 229 258 249 222 300 297 305 268 232 228 227 221 223 221 219 219 220 218 216 216 215 215 214 215 217 219 222 226 228 231 233 237 240
5 208 286 325 208 183 156 220 198 171 165 190 200 247 206 226 250 267 263 243 235 230 233 232 233 233 227 223 223 224 224 222 223 223 223 225 227 229 232 236 239 242 247 251
61 316 291 263 266 276 306 243 213 224 228 227 217 237 213 218 225 215 253 269 249 246 244 237 236 237 237 236 233 230 229 229 229 229 231 235 238 237 237 240 245 248 254 261
348 21 327 329 291 356 241 196 233 169 120 215 213 250 240 239 232 244 248 254 252 244 244 240 238 238 241 243 245 243 240 240 238 235 235 239 240 241 244 246 251 256 261 266
193 210 233 277 299 307 293 219 224 213 222 228 238 204 225 227 241 253 230 235 238 242 243 242 237 235 238 241 247 251 253 248 245 245 242 241 244 251 254 261 261 265 268 270
221 254 223 267 281 280 275 268 232 216 223 219 200 206 218 221 220 232 237 246 243 243 231 234 231 231 235 234 239 245 251 255 253 249 248 248 249 252 257 261 263 266 268 271
183 253 293 280 293 260 257 250 228 225 195 235 221 248 223 251 247 271 241 244 233 234 231 230 227 229 231 230 233 241 245 250 254 255 255 251 253 257 261 263 263 264 266 268
248 271 346 268 312 314 258 228 222 212 201 182 216 199 248 252 240 243 252 250 245 249 253 237 225 227 227 229 232 237 244 249 249 249 252 254 255 254 256 257 258 260 272 272
225 246 222 280 333 252 253 191 218 225 239 218 238 214 240 237 267 272 257 242 244 244 247 240 232 226 226 227 231 236 239 240 244 246 247 247 245 246 251 257 262 256 258 254
210 188 252 247 260 302 305 292 193 185 254 244 248 233 244 273 297 278 264 253 245 242 247 233 233 229 224 223 228 229 231 233 233 231 230 236 234 237 242 242 229 229 234 235
194 209 215 214 201 241 226 320 336 351 276 234 203 245 228 203 223 256 264 249 244 234 239 232 221 212 207 210 211 208 201 183 166 162 168 183 223 232 238 241 224 235 224 217
192 201 222 217 242 269 259 343 318 178 254 331 313 300 248 185 232 274 286 250 222 221 216 209 198 191 188 183 175 165 157 152 148 158 182 205 221 236 237 236 227 222 210 200
194 187 201 202 221 263 3 2 307 283 319 349 359 358 332 294 301 297 280 266 213 178 166 169 168 164 156 149 150 144 143 142 151 155 134 164 189 202 196 201 194 186 186 184
256 194 220 190 223 204 12 285 289 268 275 297 349 342 347 316 294 294 287 220 146 162 162 152 150 136 127 128 132 144 134 122 100 101 107 126 145 161 163 166 164 169 179 200
253 181 218 115 251 242 258 295 280 288 261 267 311 338 341 338 291 257 225 180 153 136 134 143 142 134 130 130 123 111 108 109 103 97 115 139 150 154 154 160 162 178 186 199
215 177 206 244 278 281 272 276 328 326 295 267 280 292 308 344 137 156 139 139 132 132 136 134 129 129 127 123 123 121 126 142 138 136 135 141 155 164 166 166 158 165 155 152
205 225 203 253 247 249 286 317 325 324 314 300 251 215 232 238 94 126 117 119 128 136 134 128 128 136 138 139 138 142 153 159 150 138 143 148 147 144 132 119 111 91 43 331